Preview of NWS' New Version of Forecast
This preview is not operational and should not be used for support decisions.

Regional Weather Roundup (RWR)

Issued by National Weather Service (NWS)

                            
000
ASUS42 KTBW 202018
RWRFL 
FLORIDA REGIONAL WEATHER ROUNDUP
NATIONAL WEATHER SERVICE TAMPA BAY RUSKIN FL
400 PM EDT TUE AUG 20 2019

NOTE: "FAIR" INDICATES FEW OR NO CLOUDS BELOW 12,000 FEET WITH NO
SIGNIFICANT WEATHER AND/OR OBSTRUCTIONS TO VISIBILITY.

FLZ001>010-012>015-112-114-115-202100-
PANHANDLE FLORIDA
  
CITY           SKY/WX    TMP DP  RH WIND       PRES   REMARKS
PENSACOLA      FAIR      83  77  82 SE9       30.07F                  
PENSACOLA NAS  LGT RAIN  80  77  90 SE8       30.07F                  
MILTON NAS     PTSUNNY   83  75  77 S8        30.08F                  
CRESTVIEW      FAIR      84  74  71 E6        30.10S                  
DUKE FIELD     PTSUNNY   85  72  64 SW8       30.08F                  
VALPARAISO     FAIR      85  72  65 SW5       30.07F                  
MARY ESTHER    PTSUNNY   84  74  72 CALM      30.06F                  
TRI COUNTY     FAIR      82  74  76 W6        30.09F THUNDER          
PANAMA CITY    FAIR      87  75  67 SE10      30.07F HX  96           
TYNDALL AFB    FAIR      87  78  74 S12       30.06F HX  98           
APALACHICOLA   FAIR      86  75  69 SE9       30.07F HX  95           

STATION/POSITION SKY/WX   TEMP    WIND        PRES    WAVE   SWELL
                          AIR SEA DIR/SP/G            HT/PER HT/PER
                          (F)     (DEG/KT/KT) (MB)    (FT/S) (FT/S)
30.1N   87.6W              77 85  200/ 14/ 17 1018.8F   2/ 6   2/ 6
29.2N   88.2W              83 84  160/ 10/ 12 1018.1F   2/ 6   2/ 6
28.8N   86.0W                 85  120/  8/ 12 1017.9F
PANAMA CITY BEAC           85 86  180/  8/ 11 1019.2
TOWER C                    82     130/  7/  8 1018.5F
28.5N   84.5W              83      90/  8/ 10 1018.2F   2/ 4   2/ 6

$$
FLZ011-016>038-118-127-128-134-139-239-202100-
NORTH FLORIDA
  
CITY           SKY/WX    TMP DP  RH WIND       PRES   REMARKS
MARIANNA       FAIR      82  76  81 NW3       30.07F                  
TALLAHASSEE    CLOUDY    89  75  63 VRB5      30.08F HX  99           
PERRY          FAIR      90  76  64 SW3       30.08F HX 101           
LIVE OAK       SUNNY     90  73  58 CALM      30.07F HX  98           
CROSS CITY     FAIR      91  73  56 SE3       30.06F HX  99           
LAKE CITY      PTSUNNY   90  70  51 CALM      30.07F HX  95           
GAINESVILLE    FAIR      89  73  59 SW5       30.09F HX  97           
WILLISTON      FAIR      91  71  53 SE8       30.06F HX  97           
MAYPORT NAS    PTSUNNY   84  75  74 E7        30.10S                  
JACKSONVILLE   PTSUNNY   81  76  84 CALM      30.09F                  
JAX NAS        PTSUNNY   83  73  72 E5        30.10F                  
JAX CECIL      MOSUNNY   79  75  89 VRB5      30.10F                  
FERNANDINA BEA FAIR      83  77  82 SE8       30.11S                  
ST AUGUSTINE   FAIR      83  77  82 E8        30.11F                  
PALM COAST     SUNNY     84  73  70 E10       30.09F                  

STATION/POSITION SKY/WX   TEMP    WIND        PRES    WAVE   SWELL
                          AIR SEA DIR/SP/G            HT/PER HT/PER
                          (F)     (DEG/KT/KT) (MB)    (FT/S) (FT/S)
SHELL POINT      NOT AVBL
KEATON BEACH               83     260/  7/  7 1018.4F
CEDAR KEY                  86     240/  2/  4 1018.5F
FERNANDINA                 88 83              1020.3F
30.7N   81.3W                 83                N/A     1/ 7
MAYPORT                    84 83  130/  5/  8 1019.9R
31.4N   80.9W              83 85  140/  6/  8 1019.3F   1/ 8   2/ 8
ST AUGUSTINE               82 84  100/  9/  9 1019.2F

$$
FLZ040-043>046-052-053-057-058-063-144-202100-
INTERIOR CENTRAL FLORIDA
  
CITY           SKY/WX    TMP DP  RH WIND       PRES   REMARKS
OCALA          FAIR      90  73  57 SE9       30.07F HX  98           
LEESBURG       FAIR      92  70  48 S6        30.07F HX  97           
SANFORD        FAIR      81  74  79 SW9       30.08R HAZE             
ORLANDO EXEC   FAIR      84  73  69 SE8       30.08F                  
ORLANDO INTL   PTSUNNY   81  73  76 SE3       30.08F                  
KISSIMMEE      LGT RAIN  81  74  79 E14       30.09S                  
WINTER HAVEN   FAIR      91  72  53 SE9       30.08F HX  98           
LAKELAND       PTSUNNY   82  75  78 SE3       30.07F                  
BARTOW         PTSUNNY   88  73  62 E10       30.06F HX  96           
SEBRING        FAIR      90  71  53 SE13      30.06F HAZE    HX  96   
OKEECHOBEE     FAIR      90  72  55 SE6       30.05F HX  96           

$$
FLZ041-047-054-059-064-141-147-202100-
EAST CENTRAL FLORIDA
  
CITY           SKY/WX    TMP DP  RH WIND       PRES   REMARKS
ORMOND BEACH   SUNNY     84  75  74 E8        30.09F                  
DAYTONA BEACH  PTSUNNY   88  76  67 E10       30.08F HX  99           
DELAND         PTSUNNY   90  73  58 E13       30.06F HX  98           
NEW SMYRNA BEA MOSUNNY   90  72  55 SE12      30.10S HX  96           
JFK SPACE CTR  PTSUNNY  N/A N/A N/A SE9         N/A                   
TITUSVILLE     MOSUNNY   91  73  55 SE12      30.09F HX 100           
CAPE CANAVERAL FAIR      88  76  67 CALM      30.08S HX  99           
PATRICK AFB    FAIR      85  77  76 SE9       30.09S HX  95           
MELBOURNE      FAIR      86  74  67 SE13      30.08S                  
VERO BEACH     FAIR      87  75  67 E15       30.07F HX  96           
FT PIERCE      FAIR      88  73  61 SE16      30.07F HX  95           
STUART         MOSUNNY   88  73  62 E12       30.08F HX  96           

STATION/POSITION SKY/WX   TEMP    WIND        PRES    WAVE   SWELL
                          AIR SEA DIR/SP/G            HT/PER HT/PER
                          (F)     (DEG/KT/KT) (MB)    (FT/S) (FT/S)
28.5N   80.2W              83 85  170/  4/  6 1018.9F   2/ 8   2/ 8
28.9N   78.5W              85 87  140/  6/  8 1019.8F   2/ 8   2/ 8
TRIDENT PIER               86 82  130/  6/  9 1020.4F
28.4N   80.5W                 82                N/A     2/ 5
27.5N   80.2W                 84                N/A     2/ 4

$$
FLZ050-056-061-142-242-148-248-149-249-151-251-155-255-
160-260-202100-
WEST CENTRAL FLORIDA
  
CITY           SKY/WX    TMP DP  RH WIND       PRES   REMARKS
CRYSTAL RIVER  PTSUNNY   86  73  66 N3        30.05F                  
INVERNESS      FAIR      91  73  55 CALM      30.06F HX 100           
BROOKSVILLE    FAIR      92  74  55 SE7       30.05F HX 101           
CLEARWATER AIR FAIR      90  70  51 E6        30.03F HX  95           
ST PETE CLEARW FAIR      91  72  53 NE5       30.03F HX  98           
TAMPA INTL     PTSUNNY   91  73  55 SW7       30.04F HX 100           
PLANT CITY     CLOUDY    84  75  74 E6        30.08F                  
MACDILL AFB    TSTM      81  75  83 SE24G30   30.06R                  
PETER O KNIGHT HVY RAIN  84  77  79 S21       30.06R                  
ST PETERSBURG  TSTM      83  76  79 SE17      30.04S                  
SARASOTA       LGT RAIN  80  75  84 SW3       30.03F                  
VENICE         PTSUNNY   81  75  83 SE20      30.07R THUNDER          

STATION/POSITION SKY/WX   TEMP    WIND        PRES    WAVE   SWELL
                          AIR SEA DIR/SP/G            HT/PER HT/PER
                          (F)     (DEG/KT/KT) (MB)    (FT/S) (FT/S)
27.3N   84.2W                 85                N/A     3/ 4
CLEARWATER BEACH           85 86  280/  7/  8 1017.9
MIDDLE TAMPA BAY           85      30/  8/ 12 1017.5F
VENICE                     77 85  100/ 11/ 15 1017.9R

$$
FLZ066-069-070-075>078-162-262-165-265-202100-
SOUTHWEST FLORIDA AND KEYS
  
CITY           SKY/WX    TMP DP  RH WIND       PRES   REMARKS
PUNTA GORDA    PTSUNNY   90  70  51 E16G24    30.03F HX  95           
FT MYERS       TSTM      79  74  84 E15       30.04R                  
SOUTHWEST INTL TSTM      78  75  90 S15G24    30.05R                  
NAPLES         LGT RAIN  81  75  82 NE8       30.02F                  
IMMOKALEE      FAIR      84  75  74 CALM      30.01F                  
MARATHON       FAIR      89  73  59 E12G17    30.02F HX  97           
KEY WEST NAS   PTSUNNY   92  76  59 E16       30.01F HX 104           
KEY WEST INTL  HVY RAIN  82  76  81 S14G23    30.02F VSB 1            

STATION/POSITION SKY/WX   TEMP    WIND        PRES    WAVE   SWELL
                          AIR SEA DIR/SP/G            HT/PER HT/PER
                          (F)     (DEG/KT/KT) (MB)    (FT/S) (FT/S)
NAPLES                     84 87              1017.0F
26.0N   85.6W              84 86  130/  8/ 10 1016.8F   3/ 7   3/ 7
DRY TORTUGAS               84     140/  3/  4 1016.4F
SAND KEY                   84     130/ 14/ 17 1014.9F
SOMBRERO KEY               85     110/ 15/ 19 1016.9F
LONG KEY                   85                 1015.8F

$$
FLZ067-068-071>074-168-172>174-202100-
SOUTHEAST FLORIDA 
  
CITY           SKY/WX    TMP DP  RH WIND       PRES   REMARKS
W PALM BEACH   FAIR      88  74  63 SE14      30.06F HX  96           
BOCA RATON     MOSUNNY   90  75  62 SE8G18    30.05F HX 100           
FT LAUDER-EXEC FAIR      88  74  63 E15G24    30.05F HX  96           
FT LAUDERDALE  PTSUNNY   86  74  67 E16       30.04F                  
POMPANO BEACH  FAIR      88  74  63 SE13      30.05F HX  96           
PEMBROKE PINES FAIR      90  74  59 SE17G23   30.06F HX  99           
OPA LOCKA      PTSUNNY   89  73  59 SE17G24   30.05F HX  97           
MIAMI          PTSUNNY   85  73  67 E12       30.05F                  
WEST KENDALL   FAIR      87  75  67 E17G25    30.04F HX  96           
HOMESTEAD      FAIR      87  75  67 E16G24    30.03F HX  97           

STATION/POSITION SKY/WX   TEMP    WIND        PRES    WAVE   SWELL
                          AIR SEA DIR/SP/G            HT/PER HT/PER
                          (F)     (DEG/KT/KT) (MB)    (FT/S) (FT/S)
PORT EVERGLADES            87     100/  3/  7 1018.8
VIRGINIA KEY               84 89   90/ 12/ 16 1017.5
LAKE WORTH                        140/ 11/ 15   N/A
FOWEY ROCKS                83 87  110/ 21/ 24 1017.5F
SETTLEMENT POINT           85     150/  5/  9 1018.3F

$$